Home   Weather   Maun   Past weeks
Flag for Botswana

Past Weather in Maun, Botswana — Yesterday and Last 2 Weeks

Now
73 °F

Clear.


Feels Like: 76 °F
Forecast: 76 / 45 °F
Wind: 6 mph from Southeast

Location: Maun Airport

Current Time: Jun 18, 2019 at 7:19:21 pm

Latest Report: Jun 18, 2019 at 6:00 pm


Visibility: 10 mi

Pressure: 30.27 "Hg (27.15 "Hg at 943m altitude)

Humidity: 25%

Dew Point: 36 °F

Location of MaunLocation

Past Weather in Maun — Graph

°F

Maun Temperature Yesterday

Maximum temperature yesterday: 79 °F (at 2:00 pm)
Minimum temperature yesterday: 50 °F (at 2:00 am)
Average temperature yesterday: 64 °F

High & Low Weather Summary for the Past Weeks

 TemperatureHumidityPressure
High86 °F (Jun 6, 4:00 pm)82% (Jun 15, 8:00 am)30.42 "Hg (Jun 15, 8:00 am)
Low43 °F (Jun 6, 6:00 am)12% (Jun 7, 5:00 pm)30.12 "Hg (Jun 5, 4:00 pm)
Average65 °F38%30.27 "Hg
* Reported Jun 3 6:00 pm — Jun 18 6:00 pm, Maun. Weather by CustomWeather, © 2019

Note: Actual official high and low records may vary slightly from our data, if they occured in-between our weather recording intervals... More about our weather records

Advertising

Maun Weather History for the Previous 24 Hours

Scroll right to see more
 ConditionsComfort  
Time TempWeatherWind HumidityBarometerVisibility
6:00 pm
Tue, Jun 18
73 °FClear.6 mph25%30.27 "Hg10 mi
5:00 pm75 °FSunny.9 mph25%30.24 "Hg10 mi
4:00 pm77 °FSunny.10 mph24%30.24 "Hg10 mi
3:00 pm77 °FSunny.12 mph24%30.27 "Hg10 mi
2:00 pm77 °FSunny.10 mph22%30.30 "Hg10 mi
1:00 pm77 °FSunny.10 mph21%30.33 "Hg10 mi
12:00 pm73 °FSunny.10 mph29%30.36 "Hg10 mi
11:00 am72 °FSunny.12 mph33%30.39 "Hg10 mi
10:00 am66 °FSunny.12 mph37%30.39 "Hg10 mi
9:00 am59 °FSunny.9 mph45%30.36 "Hg10 mi
8:00 am50 °FSunny.5 mph54%30.33 "Hg10 mi
7:00 am48 °FSunny.3 mph58%30.33 "Hg10 mi
6:00 am48 °FClear.3 mph58%30.30 "Hg10 mi
5:00 am52 °FClear.7 mph50%30.27 "Hg10 mi
4:00 am55 °FClear.7 mph44%30.27 "Hg10 mi
3:00 am57 °FClear.7 mph44%30.27 "Hg10 mi
1:00 am57 °FClear.8 mph44%30.30 "Hg10 mi
12:00 am59 °FClear.7 mph42%30.30 "Hg10 mi
11:00 pm
Mon, Jun 17
61 °FClear.7 mph39%30.30 "Hg10 mi
10:00 pm64 °FClear.N/A49%30.30 "Hg10 mi
9:00 pm66 °FClear.9 mph35%30.30 "Hg10 mi
8:00 pm66 °FClear.5 mph35%30.27 "Hg10 mi
7:00 pm70 °FClear.5 mph33%30.27 "Hg10 mi
Weather by CustomWeather, © 2019

See weather overview